Location: Beverley
(50.2667°N, 107.9667°W)
Time: 07:16:13
(UTC+00:00)

EO-79 - Pass Details

Date: 05 July 2022
Orbit: 588 x 603 km, 98.0° (Epoch: 09 August)

Event Time Altitude Azimuth Distance (km) Brightness Sun altitude
Rises 08:03:16 0° 25° (NNE) 2,860 ? -16.2°
Reaches altitude 10° 08:05:51 10° 41° (NE) 1,954 ? -16.1°
Maximum altitude 08:09:12 22° 93° (E) 1,323 ? -16.0°
Enters shadow 08:11:54 13° 139° (SE) 1,759 ? -15.9°
